Location: Emblem
(62.4273°N, 6.4710°E)
Time: 21:21:55
(UTC+02:00)

Vanguard 2 - Pass Details

Date: 15 February 2023
Orbit: 553 x 2927 km, 32.9° (Epoch: 27 March)

Event Time Altitude Azimuth Distance (km) Brightness Sun altitude
Rises 20:58:21 0° 218° (SW) 4,479 11.6 -25.8°
Reaches altitude 10° 21:04:11 10° 189° (S) 4,089 11.0 -26.4°
Maximum altitude 21:07:22 12° 172° (S) 4,252 11.0 -26.8°
Enters shadow 21:07:25 12° 171° (S) 4,256 11.0 -26.8°
Drops below altitude 10° 21:10:56 10° 155° (SSE) 4,687 - -27.1°
Sets 21:19:25 0° 130° (SE) 6,282 - -28.0°
